Location: Krasnoyarskiy Pitomnik
(51.1333°N, 71.6167°E)
Time: 22:25:38
(UTC+00:00)

A-11 Canister half - Pass Details

Date: 27 April 2024
Orbit: 1525 x 1683 km, 47.3° (Epoch: 19 May)

Event Time Altitude Azimuth Distance (km) Brightness Sun altitude
Rises 21:44:19 0° 197° (SSW) 4,798 - -16.6°
Reaches altitude 10° 21:48:01 10° 186° (S) 3,841 - -16.3°
Exits shadow 21:48:32 12° 184° (S) 3,723 10.5 -16.2°
Maximum altitude 21:55:40 27° 134° (SE) 2,801 10.3 -15.5°
Drops below altitude 10° 22:03:27 10° 83° (E) 3,934 11.9 -14.7°
Sets 22:07:17 0° 72° (ENE) 4,936 12.8 -14.2°
